Time,TemperatureF,DewpointF,PressureIn,WindDirection,WindDirectionDegrees,WindSpeedMPH,WindSpeedGustMPH,Humidity,HourlyPrecipIn,Conditions,Clouds,dailyrainin,SoftwareType,DateUTC
2013-03-15 00:04:00,27.8,24.7,30.08,NW,304,0.0,4.0,88,0.00,,,0.00,VWS V12.07,2013-03-15 05:04:00,
2013-03-15 00:09:00,27.8,24.4,30.08,West,262,0.0,4.0,87,0.00,,,0.00,VWS V12.07,2013-03-15 05:09:00,
2013-03-15 00:14:00,27.9,24.5,30.08,WSW,241,0.0,5.0,87,0.00,,,0.00,VWS V12.07,2013-03-15 05:14:00,
2013-03-15 00:19:00,27.9,24.5,30.08,WSW,256,1.0,5.0,87,0.00,,,0.00,VWS V12.07,2013-03-15 05:19:00,
2013-03-15 00:24:00,27.9,24.5,30.08,WSW,256,0.0,5.0,87,0.00,,,0.00,VWS V12.07,2013-03-15 05:24:00,
2013-03-15 00:29:00,28.0,24.6,30.08,WSW,258,3.0,9.0,87,0.00,,,0.00,VWS V12.07,2013-03-15 05:29:00,
2013-03-15 00:34:00,28.0,24.6,30.08,WNW,285,3.0,5.0,87,0.00,,,0.00,VWS V12.07,2013-03-15 05:34:00,
2013-03-15 00:39:00,28.1,24.7,30.08,WSW,242,1.0,8.0,87,0.00,,,0.00,VWS V12.07,2013-03-15 05:39:00,
2013-03-15 00:44:00,28.0,24.6,30.08,WNW,302,4.0,8.0,87,0.00,,,0.00,VWS V12.07,2013-03-15 05:44:00,
2013-03-15 00:54:00,28.0,24.6,30.07,West,273,2.0,8.0,87,0.00,,,0.00,VWS V12.07,2013-03-15 05:54:00,
2013-03-15 00:59:00,28.0,24.6,30.07,SW,229,2.0,8.0,87,0.00,,,0.00,VWS V12.07,2013-03-15 05:59:00,
2013-03-15 01:04:00,28.0,24.6,30.07,West,264,0.0,2.0,87,0.00,,,0.00,VWS V12.07,2013-03-15 06:04:00,
2013-03-15 01:09:00,28.0,24.6,30.06,West,264,0.0,2.0,87,0.00,,,0.00,VWS V12.07,2013-03-15 06:09:00,
2013-03-15 01:19:00,27.9,24.5,30.06,NW,319,0.0,4.0,87,0.00,,,0.00,VWS V12.07,2013-03-15 06:19:00,
2013-03-15 01:24:00,27.9,24.5,30.06,West,265,4.0,4.0,87,0.00,,,0.00,VWS V12.07,2013-03-15 06:24:00,
2013-03-15 01:29:00,27.9,24.5,30.05,West,272,0.0,4.0,87,0.00,,,0.00,VWS V12.07,2013-03-15 06:29:00,
2013-03-15 01:34:00,27.9,24.5,30.05,West,259,0.0,3.0,87,0.00,,,0.00,VWS V12.07,2013-03-15 06:34:00,
2013-03-15 01:39:00,27.9,24.5,30.05,West,263,0.0,3.0,87,0.00,,,0.00,VWS V12.07,2013-03-15 06:39:00,
2013-03-15 01:49:00,28.0,24.6,30.05,West,264,0.0,3.0,87,0.00,,,0.00,VWS V12.07,2013-03-15 06:49:00,
2013-03-15 01:54:00,28.0,24.6,30.04,West,264,1.0,3.0,87,0.00,,,0.00,VWS V12.07,2013-03-15 06:54:00,
2013-03-15 01:59:00,28.0,24.6,30.04,West,273,1.0,4.0,87,0.00,,,0.00,VWS V12.07,2013-03-15 06:59:00,
2013-03-15 02:04:00,28.1,24.7,30.05,West,272,0.0,1.0,87,0.00,,,0.00,VWS V12.07,2013-03-15 07:04:00,
2013-03-15 02:09:00,28.1,24.7,30.05,West,272,0.0,2.0,87,0.00,,,0.00,VWS V12.07,2013-03-15 07:09:00,
2013-03-15 02:19:00,28.2,24.8,30.04,West,259,0.0,3.0,87,0.00,,,0.00,VWS V12.07,2013-03-15 07:19:00,
2013-03-15 02:24:00,28.2,24.8,30.04,West,259,0.0,3.0,87,0.00,,,0.00,VWS V12.07,2013-03-15 07:24:00,
2013-03-15 02:29:00,28.2,24.8,30.04,West,259,1.0,3.0,87,0.00,,,0.00,VWS V12.07,2013-03-15 07:29:00,
2013-03-15 02:34:00,28.3,25.2,30.04,West,259,0.0,0.0,88,0.00,,,0.00,VWS V12.07,2013-03-15 07:34:00,
2013-03-15 02:39:00,28.3,25.2,30.04,West,259,0.0,1.0,88,0.00,,,0.00,VWS V12.07,2013-03-15 07:39:00,
2013-03-15 02:49:00,28.3,25.2,30.03,WSW,252,0.0,2.0,88,0.00,,,0.00,VWS V12.07,2013-03-15 07:49:00,
2013-03-15 02:54:00,28.4,25.3,30.03,WSW,252,1.0,2.0,88,0.00,,,0.00,VWS V12.07,2013-03-15 07:54:00,
2013-03-15 02:59:00,28.4,25.3,30.03,WSW,257,0.0,3.0,88,0.00,,,0.00,VWS V12.07,2013-03-15 07:59:00,
2013-03-15 03:09:00,28.4,25.0,30.02,WSW,241,0.0,3.0,87,0.00,,,0.00,VWS V12.07,2013-03-15 08:09:00,
2013-03-15 03:14:00,28.5,25.4,30.02,SW,232,1.0,3.0,88,0.00,,,0.00,VWS V12.07,2013-03-15 08:14:00,
2013-03-15 03:19:00,28.5,25.4,30.02,WNW,286,0.0,3.0,88,0.00,,,0.00,VWS V12.07,2013-03-15 08:19:00,
2013-03-15 03:24:00,28.5,25.4,30.02,WNW,286,0.0,3.0,88,0.00,,,0.00,VWS V12.07,2013-03-15 08:24:00,
2013-03-15 03:29:00,28.6,25.5,30.02,WNW,286,0.0,3.0,88,0.00,,,0.00,VWS V12.07,2013-03-15 08:29:00,
2013-03-15 03:39:00,28.7,25.3,30.01,West,272,0.0,2.0,87,0.00,,,0.00,VWS V12.07,2013-03-15 08:39:00,
2013-03-15 03:44:00,28.8,25.7,30.01,WSW,252,1.0,3.0,88,0.00,,,0.00,VWS V12.07,2013-03-15 08:44:00,
2013-03-15 03:49:00,28.8,25.4,30.01,WSW,252,0.0,3.0,87,0.00,,,0.00,VWS V12.07,2013-03-15 08:49:00,
2013-03-15 03:54:00,28.9,25.5,30.01,WSW,252,0.0,3.0,87,0.00,,,0.00,VWS V12.07,2013-03-15 08:54:00,
2013-03-15 03:59:00,28.9,25.5,30.00,WSW,252,1.0,3.0,87,0.00,,,0.00,VWS V12.07,2013-03-15 08:59:00,
2013-03-15 04:04:00,28.9,25.2,30.00,WSW,258,0.0,2.0,86,0.00,,,0.00,VWS V12.07,2013-03-15 09:04:00,
2013-03-15 04:14:00,28.8,25.4,30.00,WSW,256,0.0,2.0,87,0.00,,,0.00,VWS V12.07,2013-03-15 09:14:00,
2013-03-15 04:19:00,28.7,25.3,30.00,WSW,256,0.0,2.0,87,0.00,,,0.00,VWS V12.07,2013-03-15 09:19:00,
2013-03-15 04:29:00,28.7,25.3,29.99,West,259,0.0,2.0,87,0.00,,,0.00,VWS V12.07,2013-03-15 09:29:00,
2013-03-15 04:34:00,28.7,25.0,29.99,WSW,257,0.0,1.0,86,0.00,,,0.00,VWS V12.07,2013-03-15 09:34:00,
2013-03-15 04:39:00,28.7,25.0,29.99,WSW,257,0.0,1.0,86,0.00,,,0.00,VWS V12.07,2013-03-15 09:39:00,
2013-03-15 04:44:00,28.6,25.0,29.99,NW,315,1.0,2.0,86,0.00,,,0.00,VWS V12.07,2013-03-15 09:44:00,
2013-03-15 04:49:00,28.6,25.2,29.99,NW,316,0.0,2.0,87,0.00,,,0.00,VWS V12.07,2013-03-15 09:49:00,
2013-03-15 04:54:00,28.7,25.3,29.99,NW,325,0.0,2.0,87,0.00,,,0.00,VWS V12.07,2013-03-15 09:54:00,
2013-03-15 04:59:00,28.8,25.4,29.99,NW,325,1.0,2.0,87,0.00,,,0.00,VWS V12.07,2013-03-15 09:59:00,
2013-03-15 05:04:00,28.8,25.1,29.99,West,276,1.0,3.0,86,0.00,,,0.00,VWS V12.07,2013-03-15 10:04:00,
2013-03-15 05:09:00,28.8,25.4,30.00,WSW,250,0.0,3.0,87,0.00,,,0.00,VWS V12.07,2013-03-15 10:09:00,
2013-03-15 05:14:00,28.9,25.2,29.99,WSW,250,0.0,3.0,86,0.00,,,0.00,VWS V12.07,2013-03-15 10:14:00,
2013-03-15 05:24:00,29.0,25.4,30.00,WSW,250,0.0,3.0,86,0.00,,,0.00,VWS V12.07,2013-03-15 10:24:00,
2013-03-15 05:29:00,29.0,25.4,29.99,WSW,250,0.0,3.0,86,0.00,,,0.00,VWS V12.07,2013-03-15 10:29:00,
2013-03-15 05:39:00,29.0,25.4,30.00,WSW,250,1.0,2.0,86,0.00,,,0.00,VWS V12.07,2013-03-15 10:39:00,
2013-03-15 05:44:00,29.1,25.4,30.00,NW,319,1.0,2.0,86,0.00,,,0.00,VWS V12.07,2013-03-15 10:44:00,
2013-03-15 05:49:00,29.2,25.5,30.00,NW,319,0.0,2.0,86,0.00,,,0.00,VWS V12.07,2013-03-15 10:49:00,
2013-03-15 05:54:00,29.3,25.6,30.00,NW,319,0.0,2.0,86,0.00,,,0.00,VWS V12.07,2013-03-15 10:54:00,
2013-03-15 05:59:00,29.4,25.7,30.00,ENE,61,0.0,2.0,86,0.00,,,0.00,VWS V12.07,2013-03-15 10:59:00,
2013-03-15 06:04:00,29.4,25.7,30.00,ENE,62,0.0,0.0,86,0.00,,,0.00,VWS V12.07,2013-03-15 11:04:00,
2013-03-15 06:09:00,29.5,27.5,30.00,ENE,61,0.0,2.0,92,0.00,,,0.00,VWS V12.07,2013-03-15 11:09:00,
2013-03-15 06:19:00,29.5,25.8,30.00,ENE,62,0.0,2.0,86,0.00,,,0.00,VWS V12.07,2013-03-15 11:19:00,
2013-03-15 06:29:00,29.5,25.8,30.00,ENE,62,0.0,2.0,86,0.00,,,0.00,VWS V12.07,2013-03-15 11:29:00,
2013-03-15 06:34:00,29.5,25.8,30.00,ENE,61,0.0,0.0,86,0.00,,,0.00,VWS V12.07,2013-03-15 11:34:00,
2013-03-15 06:39:00,29.5,25.8,30.00,NNE,30,0.0,2.0,86,0.00,,,0.00,VWS V12.07,2013-03-15 11:39:00,
2013-03-15 06:49:00,29.6,25.9,30.01,NNE,30,0.0,2.0,86,0.00,,,0.00,VWS V12.07,2013-03-15 11:49:00,
2013-03-15 06:54:00,29.6,25.9,30.01,WSW,252,0.0,2.0,86,0.00,,,0.00,VWS V12.07,2013-03-15 11:54:00,
2013-03-15 06:59:00,29.6,25.9,30.01,West,280,0.0,2.0,86,0.00,,,0.00,VWS V12.07,2013-03-15 11:59:00,
2013-03-15 07:04:00,29.6,26.2,30.02,West,280,0.0,1.0,87,0.00,,,0.00,VWS V12.07,2013-03-15 12:04:00,
2013-03-15 07:14:00,29.5,26.4,30.02,NE,48,3.0,8.0,88,0.00,,,0.00,VWS V12.07,2013-03-15 12:14:00,
2013-03-15 07:19:00,29.4,26.3,30.02,NE,44,3.0,8.0,88,0.00,,,0.00,VWS V12.07,2013-03-15 12:19:00,
2013-03-15 07:24:00,29.2,26.4,30.02,NE,44,2.0,8.0,89,0.00,,,0.00,VWS V12.07,2013-03-15 12:24:00,
2013-03-15 07:34:00,29.0,26.2,30.02,NE,38,1.0,4.0,89,0.00,,,0.00,VWS V12.07,2013-03-15 12:34:00,
2013-03-15 07:39:00,28.8,26.0,30.02,NNE,18,1.0,4.0,89,0.00,,,0.00,VWS V12.07,2013-03-15 12:39:00,
2013-03-15 07:49:00,28.6,25.8,30.02,NE,51,1.0,5.0,89,0.00,,,0.00,VWS V12.07,2013-03-15 12:49:00,
2013-03-15 07:54:00,28.4,25.6,30.02,North,9,4.0,6.0,89,0.00,,,0.00,VWS V12.07,2013-03-15 12:54:00,
2013-03-15 07:59:00,28.2,25.4,30.02,NNE,22,0.0,6.0,89,0.00,,,0.00,VWS V12.07,2013-03-15 12:59:00,
2013-03-15 08:04:00,28.1,25.3,30.03,NNE,17,2.0,4.0,89,0.00,,,0.00,VWS V12.07,2013-03-15 13:04:00,
2013-03-15 08:09:00,28.1,25.3,30.03,ENE,59,3.0,6.0,89,0.00,,,0.00,VWS V12.07,2013-03-15 13:09:00,
2013-03-15 08:14:00,28.0,24.9,30.03,NE,34,4.0,7.0,88,0.00,,,0.00,VWS V12.07,2013-03-15 13:14:00,
2013-03-15 08:24:00,27.7,24.6,30.03,NNE,32,3.0,9.0,88,0.00,,,0.00,VWS V12.07,2013-03-15 13:24:00,
2013-03-15 08:29:00,27.5,24.4,30.03,North,11,2.0,9.0,88,0.00,,,0.00,VWS V12.07,2013-03-15 13:29:00,
2013-03-15 08:39:00,27.4,24.0,30.03,NNE,29,2.0,7.0,87,0.00,,,0.00,VWS V12.07,2013-03-15 13:39:00,
2013-03-15 08:44:00,27.2,23.9,30.03,NNE,32,4.0,7.0,87,0.00,,,0.00,VWS V12.07,2013-03-15 13:44:00,
2013-03-15 08:49:00,27.0,23.4,30.03,ENE,59,4.0,9.0,86,0.00,,,0.00,VWS V12.07,2013-03-15 13:49:00,
2013-03-15 08:54:00,26.9,23.3,30.03,NNE,24,8.0,9.0,86,0.00,,,0.00,VWS V12.07,2013-03-15 13:54:00,
2013-03-15 08:59:00,26.8,22.9,30.03,ENE,57,4.0,9.0,85,0.00,,,0.00,VWS V12.07,2013-03-15 13:59:00,
2013-03-15 09:04:00,26.7,22.8,30.03,NE,47,4.0,5.0,85,0.00,,,0.00,VWS V12.07,2013-03-15 14:04:00,
2013-03-15 09:09:00,26.7,22.8,30.02,NE,34,4.0,6.0,85,0.00,,,0.00,VWS V12.07,2013-03-15 14:09:00,
2013-03-15 09:14:00,26.7,22.5,30.02,NE,49,3.0,6.0,84,0.00,,,0.00,VWS V12.07,2013-03-15 14:14:00,
2013-03-15 09:19:00,26.7,22.5,30.02,NE,45,3.0,6.0,84,0.00,,,0.00,VWS V12.07,2013-03-15 14:19:00,
2013-03-15 09:24:00,26.7,22.5,30.02,NE,38,3.0,6.0,84,0.00,,,0.00,VWS V12.07,2013-03-15 14:24:00,
2013-03-15 09:29:00,26.8,22.6,30.02,NNE,24,3.0,6.0,84,0.00,,,0.00,VWS V12.07,2013-03-15 14:29:00,
2013-03-15 09:34:00,26.8,22.3,30.02,NE,36,2.0,3.0,83,0.00,,,0.00,VWS V12.07,2013-03-15 14:34:00,
2013-03-15 09:39:00,26.8,22.3,30.02,NE,52,4.0,5.0,83,0.00,,,0.00,VWS V12.07,2013-03-15 14:39:00,
2013-03-15 09:44:00,26.7,22.2,30.02,NE,35,2.0,7.0,83,0.00,,,0.00,VWS V12.07,2013-03-15 14:44:00,
2013-03-15 09:49:00,26.7,22.0,30.02,NNE,24,4.0,7.0,82,0.00,,,0.00,VWS V12.07,2013-03-15 14:49:00,
2013-03-15 09:59:00,26.5,21.8,30.02,ENE,71,5.0,9.0,82,0.00,,,0.00,VWS V12.07,2013-03-15 14:59:00,
2013-03-15 10:04:00,26.4,21.7,30.02,NNE,27,2.0,7.0,82,0.00,,,0.00,VWS V12.07,2013-03-15 15:04:00,
2013-03-15 10:09:00,26.3,21.3,30.03,NNE,33,4.0,7.0,81,0.00,,,0.00,VWS V12.07,2013-03-15 15:09:00,
2013-03-15 10:14:00,26.4,21.4,30.03,NE,51,6.0,7.0,81,0.00,,,0.00,VWS V12.07,2013-03-15 15:14:00,
2013-03-15 10:19:00,26.4,21.4,30.03,NE,34,0.0,7.0,81,0.00,,,0.00,VWS V12.07,2013-03-15 15:19:00,
2013-03-15 10:24:00,26.6,21.3,30.03,NE,40,4.0,7.0,80,0.00,,,0.00,VWS V12.07,2013-03-15 15:24:00,
2013-03-15 10:29:00,26.7,21.4,30.03,ENE,58,2.0,7.0,80,0.00,,,0.00,VWS V12.07,2013-03-15 15:29:00,
2013-03-15 10:34:00,26.7,21.4,30.03,NNE,28,2.0,2.0,80,0.00,,,0.00,VWS V12.07,2013-03-15 15:34:00,
2013-03-15 10:44:00,26.8,21.2,30.02,ENE,68,3.0,6.0,79,0.00,,,0.00,VWS V12.07,2013-03-15 15:44:00,
2013-03-15 10:49:00,26.9,21.3,30.03,NNE,15,4.0,7.0,79,0.00,,,0.00,VWS V12.07,2013-03-15 15:49:00,
2013-03-15 10:54:00,27.0,21.4,30.03,North,9,2.0,7.0,79,0.00,,,0.00,VWS V12.07,2013-03-15 15:54:00,
2013-03-15 10:59:00,27.0,21.4,30.02,NE,54,5.0,7.0,79,0.00,,,0.00,VWS V12.07,2013-03-15 15:59:00,
2013-03-15 11:04:00,26.8,20.9,30.03,NE,37,2.0,9.0,78,0.00,,,0.00,VWS V12.07,2013-03-15 16:04:00,
2013-03-15 11:14:00,26.4,20.5,30.03,ENE,57,4.0,9.0,78,0.00,,,0.00,VWS V12.07,2013-03-15 16:14:00,
2013-03-15 11:19:00,26.5,20.3,30.03,NE,43,3.0,9.0,77,0.00,,,0.00,VWS V12.07,2013-03-15 16:19:00,
2013-03-15 11:24:00,26.9,20.7,30.03,NE,50,4.0,9.0,77,0.00,,,0.00,VWS V12.07,2013-03-15 16:24:00,
2013-03-15 11:29:00,27.0,20.5,30.03,NE,51,1.0,9.0,76,0.00,,,0.00,VWS V12.07,2013-03-15 16:29:00,
2013-03-15 11:34:00,27.1,20.2,30.03,NNE,26,7.0,9.0,75,0.00,,,0.00,VWS V12.07,2013-03-15 16:34:00,
2013-03-15 11:39:00,27.3,20.4,30.03,ENE,57,4.0,9.0,75,0.00,,,0.00,VWS V12.07,2013-03-15 16:39:00,
2013-03-15 11:44:00,27.5,20.6,30.02,SW,219,3.0,9.0,75,0.00,,,0.00,VWS V12.07,2013-03-15 16:44:00,
2013-03-15 11:49:00,27.8,20.3,30.02,NE,41,1.0,9.0,73,0.00,,,0.00,VWS V12.07,2013-03-15 16:49:00,
2013-03-15 11:54:00,28.1,20.9,30.03,North,9,2.0,9.0,74,0.00,,,0.00,VWS V12.07,2013-03-15 16:54:00,
2013-03-15 11:59:00,27.9,20.1,30.02,NNE,24,2.0,9.0,72,0.00,,,0.00,VWS V12.07,2013-03-15 16:59:00,
2013-03-15 12:04:00,28.3,20.4,30.02,NNE,22,6.0,7.0,72,0.00,,,0.00,VWS V12.07,2013-03-15 17:04:00,
2013-03-15 12:09:00,28.5,20.3,30.02,NE,46,3.0,7.0,71,0.00,,,0.00,VWS V12.07,2013-03-15 17:09:00,
2013-03-15 12:14:00,28.7,19.8,30.02,NE,46,3.0,7.0,69,0.00,,,0.00,VWS V12.07,2013-03-15 17:14:00,
2013-03-15 12:19:00,28.9,20.4,30.02,ENE,63,5.0,7.0,70,0.00,,,0.00,VWS V12.07,2013-03-15 17:19:00,
2013-03-15 12:24:00,29.1,20.5,30.02,NNE,30,2.0,7.0,70,0.00,,,0.00,VWS V12.07,2013-03-15 17:24:00,
2013-03-15 12:34:00,29.9,21.3,30.02,NNE,12,1.0,5.0,70,0.00,,,0.00,VWS V12.07,2013-03-15 17:34:00,
2013-03-15 12:44:00,30.1,20.8,30.02,North,351,3.0,7.0,68,0.00,,,0.00,VWS V12.07,2013-03-15 17:44:00,
2013-03-15 12:49:00,30.4,21.1,30.01,NNE,18,4.0,7.0,68,0.00,,,0.00,VWS V12.07,2013-03-15 17:49:00,
2013-03-15 12:54:00,30.6,20.6,30.01,NNE,28,0.0,7.0,66,0.00,,,0.00,VWS V12.07,2013-03-15 17:54:00,
2013-03-15 12:59:00,31.0,21.0,30.01,ENE,68,4.0,7.0,66,0.00,,,0.01,VWS V12.07,2013-03-15 17:59:00,
2013-03-15 13:04:00,30.7,20.7,30.01,NNE,25,1.0,8.0,66,0.01,,,0.01,VWS V12.07,2013-03-15 18:04:00,
2013-03-15 13:09:00,30.8,20.8,30.01,ENE,59,1.0,8.0,66,0.01,,,0.01,VWS V12.07,2013-03-15 18:09:00,
2013-03-15 13:14:00,30.7,20.3,30.01,ENE,67,5.0,8.0,65,0.01,,,0.01,VWS V12.07,2013-03-15 18:14:00,
2013-03-15 13:19:00,30.5,20.5,30.01,NE,42,2.0,8.0,66,0.01,,,0.01,VWS V12.07,2013-03-15 18:19:00,
2013-03-15 13:29:00,30.9,20.9,30.01,NE,53,4.0,8.0,66,0.01,,,0.01,VWS V12.07,2013-03-15 18:29:00,
2013-03-15 13:34:00,30.6,20.2,30.01,NE,42,4.0,7.0,65,0.01,,,0.01,VWS V12.07,2013-03-15 18:34:00,
2013-03-15 13:39:00,30.6,20.2,30.01,ENE,59,2.0,7.0,65,0.01,,,0.01,VWS V12.07,2013-03-15 18:39:00,
2013-03-15 13:44:00,30.7,20.3,30.01,NNE,14,0.0,7.0,65,0.01,,,0.01,VWS V12.07,2013-03-15 18:44:00,
2013-03-15 13:49:00,31.0,20.6,30.01,NE,46,2.0,7.0,65,0.01,,,0.01,VWS V12.07,2013-03-15 18:49:00,
2013-03-15 13:54:00,30.6,19.5,30.01,NE,45,5.0,7.0,63,0.01,,,0.01,VWS V12.07,2013-03-15 18:54:00,
2013-03-15 13:59:00,30.6,19.9,30.01,NNE,28,1.0,7.0,64,0.01,,,0.01,VWS V12.07,2013-03-15 18:59:00,
2013-03-15 14:04:00,30.7,20.0,30.01,NNE,30,4.0,6.0,64,0.00,,,0.01,VWS V12.07,2013-03-15 19:04:00,
2013-03-15 14:09:00,30.6,19.9,30.00,NNE,32,2.0,7.0,64,0.00,,,0.01,VWS V12.07,2013-03-15 19:09:00,
2013-03-15 14:14:00,30.7,19.6,30.00,NE,53,4.0,7.0,63,0.00,,,0.02,VWS V12.07,2013-03-15 19:14:00,
2013-03-15 14:24:00,30.7,18.9,30.00,SE,139,0.0,8.0,61,0.01,,,0.02,VWS V12.07,2013-03-15 19:24:00,
2013-03-15 14:29:00,30.7,19.2,30.00,NNE,23,6.0,8.0,62,0.01,,,0.02,VWS V12.07,2013-03-15 19:29:00,
2013-03-15 14:34:00,30.9,19.0,30.00,ENE,60,5.0,5.0,61,0.01,,,0.02,VWS V12.07,2013-03-15 19:34:00,
2013-03-15 14:44:00,30.6,19.1,29.99,NE,46,2.0,5.0,62,0.01,,,0.02,VWS V12.07,2013-03-15 19:44:00,
2013-03-15 14:49:00,30.8,18.6,29.99,NE,46,2.0,5.0,60,0.01,,,0.02,VWS V12.07,2013-03-15 19:49:00,
2013-03-15 14:54:00,31.0,19.1,29.99,NNE,26,1.0,7.0,61,0.01,,,0.02,VWS V12.07,2013-03-15 19:54:00,
2013-03-15 14:59:00,31.3,19.0,29.99,ENE,60,1.0,7.0,60,0.01,,,0.02,VWS V12.07,2013-03-15 19:59:00,
2013-03-15 15:09:00,31.2,19.3,29.97,NNE,28,3.0,6.0,61,0.01,,,0.02,VWS V12.07,2013-03-15 20:09:00,
2013-03-15 15:14:00,31.0,18.8,29.98,NE,53,0.0,6.0,60,0.01,,,0.02,VWS V12.07,2013-03-15 20:14:00,
2013-03-15 15:19:00,31.1,19.2,29.97,East,89,0.0,6.0,61,0.01,,,0.02,VWS V12.07,2013-03-15 20:19:00,
2013-03-15 15:24:00,31.5,18.8,29.98,NNE,25,1.0,6.0,59,0.01,,,0.02,VWS V12.07,2013-03-15 20:24:00,
2013-03-15 15:29:00,31.4,19.1,29.97,NE,37,2.0,6.0,60,0.01,,,0.02,VWS V12.07,2013-03-15 20:29:00,
2013-03-15 15:34:00,31.3,19.4,29.97,NNE,32,3.0,5.0,61,0.00,,,0.02,VWS V12.07,2013-03-15 20:34:00,
2013-03-15 15:39:00,31.1,18.5,29.98,NNE,33,2.0,7.0,59,0.00,,,0.02,VWS V12.07,2013-03-15 20:39:00,
2013-03-15 15:44:00,31.0,18.8,29.98,NE,44,5.0,7.0,60,0.01,,,0.03,VWS V12.07,2013-03-15 20:44:00,
2013-03-15 15:49:00,30.7,18.1,29.98,NE,36,2.0,10.0,59,0.01,,,0.03,VWS V12.07,2013-03-15 20:49:00,
2013-03-15 15:59:00,30.6,18.8,29.98,NNE,26,4.0,10.0,61,0.01,,,0.03,VWS V12.07,2013-03-15 20:59:00,
2013-03-15 16:09:00,30.7,18.9,29.98,NE,52,6.0,8.0,61,0.01,,,0.03,VWS V12.07,2013-03-15 21:09:00,
2013-03-15 16:14:00,30.4,19.0,29.98,NE,37,1.0,8.0,62,0.01,,,0.03,VWS V12.07,2013-03-15 21:14:00,
2013-03-15 16:24:00,30.5,19.0,29.97,NE,38,2.0,8.0,62,0.01,,,0.03,VWS V12.07,2013-03-15 21:24:00,
2013-03-15 16:29:00,30.5,18.3,29.97,NE,36,3.0,8.0,60,0.01,,,0.03,VWS V12.07,2013-03-15 21:29:00,
2013-03-15 16:34:00,30.3,18.5,29.96,NNE,17,4.0,4.0,61,0.01,,,0.03,VWS V12.07,2013-03-15 21:34:00,
2013-03-15 16:44:00,30.0,18.6,29.96,NNE,32,2.0,6.0,62,0.01,,,0.03,VWS V12.07,2013-03-15 21:44:00,
2013-03-15 16:49:00,30.0,18.2,29.96,NE,41,3.0,7.0,61,0.01,,,0.03,VWS V12.07,2013-03-15 21:49:00,
2013-03-15 16:54:00,29.9,18.1,29.97,NNE,28,2.0,7.0,61,0.01,,,0.03,VWS V12.07,2013-03-15 21:54:00,
2013-03-15 17:04:00,29.8,18.0,29.97,NNE,28,0.0,2.0,61,0.00,,,0.03,VWS V12.07,2013-03-15 22:04:00,
2013-03-15 17:14:00,29.8,18.8,29.97,NNE,26,3.0,6.0,63,0.00,,,0.03,VWS V12.07,2013-03-15 22:14:00,
2013-03-15 17:19:00,29.8,18.8,29.97,NNE,15,1.0,6.0,63,0.00,,,0.03,VWS V12.07,2013-03-15 22:19:00,
2013-03-15 17:24:00,29.6,17.8,29.97,North,360,1.0,6.0,61,0.00,,,0.03,VWS V12.07,2013-03-15 22:24:00,
2013-03-15 17:29:00,29.5,18.5,29.97,North,9,1.0,6.0,63,0.00,,,0.03,VWS V12.07,2013-03-15 22:29:00,
2013-03-15 17:34:00,29.4,18.4,29.96,NNE,17,2.0,2.0,63,0.00,,,0.03,VWS V12.07,2013-03-15 22:34:00,
2013-03-15 17:39:00,29.3,17.9,29.96,NNE,25,3.0,4.0,62,0.00,,,0.03,VWS V12.07,2013-03-15 22:39:00,
2013-03-15 17:44:00,29.2,18.2,29.96,NNE,31,1.0,6.0,63,0.00,,,0.03,VWS V12.07,2013-03-15 22:44:00,
2013-03-15 17:54:00,29.0,18.4,29.97,North,5,0.0,6.0,64,0.00,,,0.03,VWS V12.07,2013-03-15 22:54:00,
2013-03-15 18:04:00,28.8,17.8,29.97,NE,36,3.0,6.0,63,0.00,,,0.03,VWS V12.07,2013-03-15 23:04:00,
2013-03-15 18:09:00,28.6,17.2,29.97,NNE,30,4.0,6.0,62,0.00,,,0.03,VWS V12.07,2013-03-15 23:09:00,
2013-03-15 18:14:00,28.5,17.9,29.97,NE,48,1.0,6.0,64,0.00,,,0.03,VWS V12.07,2013-03-15 23:14:00,
2013-03-15 18:19:00,28.5,18.2,29.97,NE,56,3.0,6.0,65,0.00,,,0.03,VWS V12.07,2013-03-15 23:19:00,
2013-03-15 18:24:00,28.4,18.1,29.97,NE,38,3.0,6.0,65,0.00,,,0.03,VWS V12.07,2013-03-15 23:24:00,
2013-03-15 18:29:00,28.3,18.1,29.97,NNE,22,1.0,6.0,65,0.00,,,0.03,VWS V12.07,2013-03-15 23:29:00,
2013-03-15 18:34:00,28.2,18.0,29.97,ENE,69,2.0,3.0,65,0.00,,,0.03,VWS V12.07,2013-03-15 23:34:00,
2013-03-15 18:39:00,28.0,17.8,29.97,NE,42,4.0,7.0,65,0.00,,,0.03,VWS V12.07,2013-03-15 23:39:00,
2013-03-15 18:44:00,27.9,17.7,29.97,ENE,61,2.0,7.0,65,0.00,,,0.03,VWS V12.07,2013-03-15 23:44:00,
2013-03-15 18:54:00,27.6,17.7,29.97,NE,40,0.0,7.0,66,0.00,,,0.03,VWS V12.07,2013-03-15 23:54:00,
2013-03-15 18:59:00,27.5,18.0,29.97,NE,46,4.0,7.0,67,0.00,,,0.03,VWS V12.07,2013-03-15 23:59:00,
2013-03-15 19:04:00,27.3,18.1,29.97,NNE,32,7.0,7.0,68,0.00,,,0.03,VWS V12.07,2013-03-16 00:04:00,
2013-03-15 19:09:00,27.1,18.3,29.96,East,96,2.0,7.0,69,0.00,,,0.03,VWS V12.07,2013-03-16 00:09:00,
2013-03-15 19:14:00,26.9,18.4,29.96,NE,46,5.0,8.0,70,0.00,,,0.03,VWS V12.07,2013-03-16 00:14:00,
2013-03-15 19:19:00,26.8,18.3,29.96,ENE,70,2.0,8.0,70,0.00,,,0.03,VWS V12.07,2013-03-16 00:19:00,
2013-03-15 19:24:00,26.7,18.9,29.96,ENE,63,5.0,11.0,72,0.00,,,0.03,VWS V12.07,2013-03-16 00:24:00,
2013-03-15 19:29:00,26.4,18.9,29.96,ENE,59,3.0,11.0,73,0.00,,,0.03,VWS V12.07,2013-03-16 00:29:00,
2013-03-15 19:34:00,26.0,19.2,29.96,NE,40,4.0,8.0,75,0.00,,,0.03,VWS V12.07,2013-03-16 00:34:00,
2013-03-15 19:39:00,25.7,19.5,29.97,NE,46,5.0,8.0,77,0.00,,,0.03,VWS V12.07,2013-03-16 00:39:00,
2013-03-15 19:44:00,25.5,19.9,29.97,NNE,32,2.0,11.0,79,0.00,,,0.03,VWS V12.07,2013-03-16 00:44:00,
2013-03-15 19:49:00,25.3,20.0,29.97,NE,54,3.0,11.0,80,0.00,,,0.03,VWS V12.07,2013-03-16 00:49:00,
2013-03-15 19:54:00,25.0,20.0,29.97,ENE,65,5.0,11.0,81,0.00,,,0.03,VWS V12.07,2013-03-16 00:54:00,
2013-03-15 20:04:00,24.7,20.0,29.98,NE,38,1.0,4.0,82,0.00,,,0.03,VWS V12.07,2013-03-16 01:04:00,
2013-03-15 20:09:00,24.5,20.1,29.98,NE,55,2.0,5.0,83,0.00,,,0.03,VWS V12.07,2013-03-16 01:09:00,
2013-03-15 20:19:00,24.2,20.4,29.98,NE,53,2.0,6.0,85,0.00,,,0.03,VWS V12.07,2013-03-16 01:19:00,
2013-03-15 20:24:00,23.9,20.1,29.99,NE,41,4.0,6.0,85,0.00,,,0.03,VWS V12.07,2013-03-16 01:24:00,
2013-03-15 20:34:00,23.5,19.7,29.99,East,85,3.0,4.0,85,0.00,,,0.03,VWS V12.07,2013-03-16 01:34:00,
2013-03-15 20:44:00,22.7,18.9,29.99,NE,45,8.0,8.0,85,0.00,,,0.03,VWS V12.07,2013-03-16 01:44:00,
2013-03-15 20:54:00,22.0,18.5,29.99,NE,36,6.0,8.0,86,0.00,,,0.03,VWS V12.07,2013-03-16 01:54:00,
2013-03-15 21:04:00,21.5,18.2,29.99,ENE,78,3.0,7.0,87,0.00,,,0.03,VWS V12.07,2013-03-16 02:04:00,
2013-03-15 21:09:00,21.3,18.0,29.99,NE,48,3.0,8.0,87,0.00,,,0.03,VWS V12.07,2013-03-16 02:09:00,
2013-03-15 21:14:00,21.2,17.9,29.99,ENE,58,4.0,8.0,87,0.00,,,0.03,VWS V12.07,2013-03-16 02:14:00,
2013-03-15 21:24:00,21.0,17.8,29.99,ENE,59,3.0,10.0,87,0.00,,,0.03,VWS V12.07,2013-03-16 02:24:00,
2013-03-15 21:29:00,20.6,17.1,29.99,NNE,29,4.0,10.0,86,0.00,,,0.03,VWS V12.07,2013-03-16 02:29:00,
2013-03-15 21:39:00,20.3,17.1,29.99,NE,48,2.0,7.0,87,0.00,,,0.03,VWS V12.07,2013-03-16 02:39:00,
2013-03-15 21:44:00,20.2,17.0,29.99,NE,51,2.0,7.0,87,0.00,,,0.03,VWS V12.07,2013-03-16 02:44:00,
2013-03-15 21:49:00,20.0,16.8,29.99,NE,52,4.0,7.0,87,0.00,,,0.03,VWS V12.07,2013-03-16 02:49:00,
2013-03-15 21:54:00,19.7,16.5,29.99,NNE,33,4.0,7.0,87,0.00,,,0.03,VWS V12.07,2013-03-16 02:54:00,
2013-03-15 21:59:00,19.5,16.0,29.99,NNE,33,4.0,7.0,86,0.00,,,0.03,VWS V12.07,2013-03-16 02:59:00,
2013-03-15 22:04:00,19.2,16.0,30.00,East,92,2.0,8.0,87,0.00,,,0.03,VWS V12.07,2013-03-16 03:04:00,
2013-03-15 22:09:00,19.0,15.8,30.00,NE,40,2.0,8.0,87,0.00,,,0.03,VWS V12.07,2013-03-16 03:09:00,
2013-03-15 22:14:00,18.9,15.7,30.00,NE,56,3.0,8.0,87,0.00,,,0.03,VWS V12.07,2013-03-16 03:14:00,
2013-03-15 22:24:00,18.4,15.2,30.01,ENE,63,3.0,8.0,87,0.00,,,0.03,VWS V12.07,2013-03-16 03:24:00,
2013-03-15 22:29:00,18.1,14.9,30.01,NE,34,3.0,8.0,87,0.00,,,0.03,VWS V12.07,2013-03-16 03:29:00,
2013-03-15 22:34:00,17.9,14.7,30.01,NE,46,3.0,4.0,87,0.00,,,0.03,VWS V12.07,2013-03-16 03:34:00,
2013-03-15 22:39:00,17.7,14.5,30.01,NNE,21,4.0,7.0,87,0.00,,,0.03,VWS V12.07,2013-03-16 03:39:00,
2013-03-15 22:44:00,17.6,14.4,30.01,ENE,57,4.0,7.0,87,0.00,,,0.03,VWS V12.07,2013-03-16 03:44:00,
2013-03-15 22:54:00,17.4,14.2,30.00,NE,37,5.0,7.0,87,0.00,,,0.03,VWS V12.07,2013-03-16 03:54:00,
2013-03-15 22:59:00,17.2,14.0,30.01,NE,38,2.0,7.0,87,0.00,,,0.03,VWS V12.07,2013-03-16 03:59:00,
2013-03-15 23:04:00,17.1,13.9,30.01,East,87,2.0,5.0,87,0.00,,,0.03,VWS V12.07,2013-03-16 04:04:00,
2013-03-15 23:09:00,17.0,13.8,30.00,NNE,29,4.0,6.0,87,0.00,,,0.03,VWS V12.07,2013-03-16 04:09:00,
2013-03-15 23:14:00,16.9,13.7,30.01,ENE,74,3.0,6.0,87,0.00,,,0.03,VWS V12.07,2013-03-16 04:14:00,
2013-03-15 23:19:00,16.8,13.6,30.01,ENE,59,1.0,6.0,87,0.00,,,0.03,VWS V12.07,2013-03-16 04:19:00,
2013-03-15 23:24:00,16.7,13.5,30.00,NE,43,2.0,6.0,87,0.00,,,0.03,VWS V12.07,2013-03-16 04:24:00,
2013-03-15 23:29:00,16.7,13.5,30.01,NNE,28,3.0,6.0,87,0.00,,,0.03,VWS V12.07,2013-03-16 04:29:00,
2013-03-15 23:34:00,16.7,13.5,30.00,NNE,28,4.0,4.0,87,0.00,,,0.03,VWS V12.07,2013-03-16 04:34:00,
2013-03-15 23:39:00,16.7,13.5,30.01,NE,40,2.0,6.0,87,0.00,,,0.03,VWS V12.07,2013-03-16 04:39:00,
2013-03-15 23:44:00,16.6,13.4,30.00,ENE,58,4.0,6.0,87,0.00,,,0.03,VWS V12.07,2013-03-16 04:44:00,
2013-03-15 23:49:00,16.6,13.4,30.00,NE,53,3.0,6.0,87,0.00,,,0.03,VWS V12.07,2013-03-16 04:49:00,
2013-03-15 23:54:00,16.5,13.3,30.00,NE,41,3.0,6.0,87,0.00,,,0.03,VWS V12.07,2013-03-16 04:54:00,
2013-03-15 23:59:00,16.4,13.2,30.00,NNE,18,2.0,6.0,87,0.00,,,0.03,VWS V12.07,2013-03-16 04:59:00,